Regional Weather Roundup
Issued by NWS Sioux Falls, SD

Home | Current Version | Previous Version | Text Only | Print | Product List | Glossary On
Versions: 1 2 3 4 5 6 7 8 9 10 11 12 13 14 15 16 17 18 19 20 21 22 23 24 25 26 27 28 29 30 31 32 33 34 35 36 37 38 39 40 41 42 43 44 45 46 47 48 49 50
000
ASUS43 KFSD 062302
RWRFSD

WEATHER ROUNDUP FOR SE SOUTH DAKOTA/SW MINNESOTA/NW IOWA
NATIONAL WEATHER SERVICE SIOUX FALLS SD
500 PM CST SAT FEB 06 2016

NOTE: "FAIR" INDICATES FEW OR NO CLOUDS BELOW 12,000 FEET WITH NO
SIGNIFICANT WEATHER AND OR OBSTRUCTIONS TO VISIBILITY.


SDZ038>040-050-052>070-070000-
SOUTHEAST SOUTH DAKOTA

CITY           SKY/WX    TMP DP  RH WIND       PRES   REMARKS
BROOKINGS      CLOUDY    34  28  79 S14       29.81F WCI  25
CHAMBERLAIN    NOT AVBL
HURON          CLOUDY    38  31  76 S12       29.80F
MADISON        FAIR      34  34 100 S14       29.83F WCI  24
MITCHELL       CLOUDY    41  33  73 S9        29.83F
SIOUX FALLS    CLOUDY    35  25  66 SW13      29.87F WCI  26
WINNER         FAIR      44  30  57 SW13      29.83F
YANKTON        PTCLDY    37  27  65 SW9       29.88F
$$

MNZ071-072-080-081-089-090-097-098-070000-
SOUTHWEST MINNESOTA

CITY           SKY/WX    TMP DP  RH WIND       PRES   REMARKS
FAIRMONT       MOCLDY    34  27  75 S18       29.90F WCI  23
JACKSON        CLOUDY    36  27  69 S18       29.90F
LUVERNE        CLOUDY    34  28  80 S10       29.87F WCI  26
MARSHALL       LGT RAIN  35  27  72 SW18      29.82F WCI  24
MONTEVIDEO     LGT RAIN  37  28  70 W6        29.81S
PIPESTONE        N/A     36  21  55 SW13      29.85F
REDWOOD FALLS  CLOUDY    35  27  72 SW16G24   29.83F WCI  25
TRACY          DRIZZLE   35  29  78 SW17      29.85R WCI  24
WINDOM         CLOUDY    36  27  69 S16G26    29.87F
WORTHINGTON    CLOUDY    34  25  69 S21G28    29.87F WCI  22
$$

IAZ001>003-012>014-020>022-031-032-NEZ013-014-SDZ071-070000-
NORTHWEST IOWA

CITY           SKY/WX    TMP DP  RH WIND       PRES   REMARKS
ESTHERVILLE    CLOUDY    33  28  81 S17       29.91F WCI  22
SIOUX CITY     CLOUDY    38  26  62 S16       29.96F
SPENCER        CLOUDY    35  26  69 S21       29.91F WCI  24
STORM LAKE     CLOUDY    36  30  80 S20G26    29.95F
$$

ABBREVIATIONS USED IN REMARKS
   TC - TEMPERATURE IN CELSIUS
  WCI - WIND CHILL INDEX
   HX - HEAT INDEX
  VSB - VISIBILITY




USA.gov is the U.S. government's official web portal to all federal, state and local government web resources and services.